H1 CPF 2 NER 2023 6 8 9 159 01 glonass131 H2 1301901 9131 39155 2023 6 8 0 0 0 2023 6 11 23 45 0 900 1 1 0 0 0 1 H9 10 0 60103 0.00000 0 21086511.035 7722632.734 12087474.443 10 0 60103 900.00000 0 22264711.989 8313561.919 9229128.464 10 0 60103 1800.00000 0 23165368.651 8641669.681 6191231.245 10 0 60103 2700.00000 0 23742129.641 8741357.756 3032780.661 10 0 60103 3600.00000 0 23958673.661 8655934.609 -184769.132 10 0 60103 4500.00000 0 23790322.832 8435545.748 -3398710.934 10 0 60103 5400.00000 0 23225186.096 8134814.135 -6546320.597 10 0 60103 6300.00000 0 22264781.269 7810291.585 -9566100.351 10 0 60103 7200.00000 0 20924106.529 7517830.978 -12399002.941 10 0 60103 8100.00000 0 19231155.954 7309993.129 -14989610.294 10 0 60103 9000.00000 0 17225897.974 7233601.121 -17287241.155 10 0 60103 9900.00000 0 14958759.088 7327548.724 -19246963.658 10 0 60103 10800.00000 0 12488676.858 7620958.539 -20830491.031 10 0 60103 11700.00000 0 9880804.943 8131770.151 -22006941.376 10 0 60103 12600.00000 0 7203967.955 8865819.695 -22753445.766 10 0 60103 13500.00000 0 4527974.488 9816450.572 -23055592.448 10 0 60103 14400.00000 0 1920902.396 10964671.881 -22907698.831 10 0 60103 15300.00000 0 -553528.971 12279857.191 -22312906.761 10 0 60103 16200.00000 0 -2838389.193 13720952.978 -21283100.570 10 0 60103 17100.00000 0 -4885668.672 15238144.207 -19838651.081 10 0 60103 18000.00000 0 -6658024.071 16774905.171 -18007992.420 10 0 60103 18900.00000 0 -8130066.534 18270347.594 -15827041.772 10 0 60103 19800.00000 0 -9289141.664 19661765.855 -13338475.270 10 0 60103 20700.00000 0 -10135572.114 20887271.364 -10590875.858 10 0 60103 21600.00000 0 -10682356.427 21888405.017 -7637771.269 10 0 60103 22500.00000 0 -10954340.617 22612618.212 -4536582.037 10 0 60103 23400.00000 0 -10986900.861 23015519.120 -1347500.902 10 0 60103 24300.00000 0 -10824195.719 23062791.304 1867674.164 10 0 60103 25200.00000 0 -10517063.731 22731705.962 5046730.701 10 0 60103 26100.00000 0 -10120656.286 22012166.361 8128233.603 10 0 60103 27000.00000 0 -9691905.921 20907242.591 11052695.973 10 0 60103 27900.00000 0 -9286936.219 19433175.877 13763707.747 10 0 60103 28800.00000 0 -8958521.208 17618853.318 16209001.995 10 0 60103 29700.00000 0 -8753699.460 15504775.388 18341440.394 10 0 60103 30600.00000 0 -8711641.329 13141558.756 20119900.975 10 0 60103 31500.00000 0 -8861857.105 10588035.508 21510053.152 10 0 60103 32400.00000 0 -9222819.890 7909025.774 22485006.934 10 0 60103 33300.00000 0 -9801060.156 5172873.578 23025825.352 10 0 60103 34200.00000 0 -10590770.016 2448845.193 23121891.066 10 0 60103 35100.00000 0 -11573934.746 -195505.233 22771120.401 10 0 60103 36000.00000 0 -12720987.912 -2696896.496 21980020.199 10 0 60103 36900.00000 0 -13991965.270 -4998703.806 20763585.185 10 0 60103 37800.00000 0 -15338112.196 -7053067.791 19145036.009 10 0 60103 38700.00000 0 -16703880.576 -8822642.384 17155400.678 10 0 60103 39600.00000 0 -18029234.496 -10281908.925 14832944.791 10 0 60103 40500.00000 0 -19252170.531 -11418001.061 12222458.901 10 0 60103 41400.00000 0 -20311348.487 -12231004.670 9374414.178 10 0 60103 42300.00000 0 -21148722.641 -12733718.577 6344000.628 10 0 60103 43200.00000 0 -21712062.261 -12950884.362 3190064.952 10 0 60103 44100.00000 0 -21957253.690 -12917916.132 -26032.146 10 0 60103 45000.00000 0 -21850284.447 -12679182.766 -3241616.913 10 0 60103 45900.00000 0 -21368822.550 -12285914.841 -6393937.596 10 0 60103 46800.00000 0 -20503321.023 -11793825.243 -9421407.972 10 0 60103 47700.00000 0 -19257597.662 -11260545.511 -12264833.007 10 0 60103 48600.00000 0 -17648862.695 -10742988.535 -14868590.289 10 0 60103 49500.00000 0 -15707190.952 -10294751.898 -17181741.682 10 0 60103 50400.00000 0 -13474459.417 -9963674.679 -19159051.031 10 0 60103 51300.00000 0 -11002794.412 -9789653.899 -20761886.018 10 0 60103 52200.00000 0 -8352594.014 -9802815.453 -21958984.994 10 0 60103 53100.00000 0 -5590209.745 -10022118.651 -22727072.823 10 0 60103 54000.00000 0 -2785386.116 -10454454.435 -23051313.383 10 0 60103 54900.00000 0 -8566.705 -11094275.537 -22925590.195 10 0 60103 55800.00000 0 2671819.213 -11923773.658 -22352610.490 10 0 60103 56700.00000 0 5191975.280 -12913594.908 -21343831.996 10 0 60103 57600.00000 0 7495152.399 -14024061.606 -19919215.432 10 0 60103 58500.00000 0 9533758.642 -15206846.933 -18106809.402 10 0 60103 59400.00000 0 11271078.157 -16407029.813 -15942177.635 10 0 60103 60300.00000 0 12682529.664 -17565441.635 -13467681.638 10 0 60103 61200.00000 0 13756414.951 -18621204.505 -10731634.483 10 0 60103 62100.00000 0 14494129.655 -19514353.279 -7787343.774 10 0 60103 63000.00000 0 14909831.253 -20188430.721 -4692063.616 10 0 60103 63900.00000 0 15029581.921 -20592946.962 -1505876.914 10 0 60103 64800.00000 0 14890005.585 -20685600.791 1709469.813 10 0 60103 65700.00000 0 14536518.339 -20434170.855 4891756.521 10 0 60103 66600.00000 0 14021208.548 -19817999.061 7979481.933 10 0 60103 67500.00000 0 13400456.793 -18829005.704 10913035.941 10 0 60103 68400.00000 0 12732395.827 -17472195.403 13635830.809 10 0 60103 69300.00000 0 12074316.584 -15765633.820 16095371.025 10 0 60103 70200.00000 0 11480127.783 -13739896.699 18244243.218 10 0 60103 71100.00000 0 10997973.961 -11437013.955 20041009.149 10 0 60103 72000.00000 0 10668109.888 -8908951.786 21450986.676 10 0 60103 72900.00000 0 10521118.661 -6215694.065 22446905.516 10 0 60103 73800.00000 0 10576546.788 -3423000.152 23009426.679 10 0 60103 74700.00000 0 10842012.729 -599929.180 23127516.496 10 0 60103 75600.00000 0 11312826.397 2183769.781 22798668.325 10 0 60103 76500.00000 0 11972136.603 4860296.720 22028967.231 10 0 60103 77400.00000 0 12791602.139 7366362.188 20832995.212 10 0 60103 78300.00000 0 13732560.912 9645567.316 19233577.025 10 0 60103 79200.00000 0 14747651.046 11650504.942 17261369.155 10 0 60103 80100.00000 0 15782818.877 13344494.998 14954297.272 10 0 60103 81000.00000 0 16779632.156 14702881.555 12356850.295 10 0 60103 81900.00000 0 17677803.247 15713836.328 9519242.156 10 0 60103 82800.00000 0 18417817.202 16378633.389 6496455.338 10 0 60103 83700.00000 0 18943554.039 16711381.748 3347183.185 10 0 60103 84600.00000 0 19204793.581 16738225.199 132690.646 10 0 60103 85500.00000 0 19159495.050 16496041.704 -3084384.375 10 0 60104 0.00000 0 18775752.366 16030696.349 -6241264.656 10 0 60104 900.00000 0 18033338.911 15394921.331 -9276278.473 10 0 60104 1800.00000 0 16924773.620 14645914.050 -12130084.992 10 0 60104 2700.00000 0 15455859.403 13842755.660 -14746859.587 10 0 60104 3600.00000 0 13645668.855 13043762.092 -17075409.170 10 0 60104 4500.00000 0 11525975.685 12303882.031 -19070195.047 10 0 60104 5400.00000 0 9140154.699 11672254.610 -20692240.945 10 0 60104 6300.00000 0 6541596.279 11190032.565 -21909906.902 10 0 60104 7200.00000 0 3791702.473 10888564.767 -22699512.876 10 0 60104 8100.00000 0 957549.761 10788016.157 -23045799.534 10 0 60104 9000.00000 0 -1890682.280 10896483.711 -22942217.483 10 0 60104 9900.00000 0 -4682407.448 11209645.289 -22391040.078 10 0 60104 10800.00000 0 -7349340.783 11710954.955 -21403298.877 10 0 60104 11700.00000 0 -9828104.167 12372374.653 -19998544.602 10 0 60104 12600.00000 0 -12062620.999 13155609.152 -18204440.062 10 0 60104 13500.00000 0 -14006200.959 14013789.782 -16056194.899 10 0 60104 14400.00000 0 -15623229.582 14893533.665 -13595855.020 10 0 60104 15300.00000 0 -16890394.598 15737289.635 -10871462.357 10 0 60104 16200.00000 0 -17797400.901 16485870.476 -7936102.842 10 0 60104 17100.00000 0 -18347147.788 17081063.874 -4846862.382 10 0 60104 18000.00000 0 -18555364.641 17468211.888 -1663712.063 10 0 60104 18900.00000 0 -18449723.850 17598650.752 1551655.249 10 0 60104 19800.00000 0 -18068471.174 17431909.360 4737014.323 10 0 60104 20700.00000 0 -17458633.423 16937575.377 7830800.326 10 0 60104 21600.00000 0 -16673880.197 16096752.219 10773282.732 10 0 60104 22500.00000 0 -15772130.080 14903047.317 13507699.085 10 0 60104 23400.00000 0 -14813001.436 13363051.534 15981328.350 10 0 60104 24300.00000 0 -13855213.668 11496290.422 18146485.200 10 0 60104 25200.00000 0 -12954046.205 9334649.365 19961418.177 10 0 60104 26100.00000 0 -12158959.628 6921295.814 21391096.506 10 0 60104 27000.00000 0 -11511476.463 4309141.864 22407872.311 10 0 60104 27900.00000 0 -11043408.482 1558908.675 22992007.004 10 0 60104 28800.00000 0 -10775503.338 -1263129.820 23132052.636 10 0 60104 29700.00000 0 -10716566.559 -4087633.652 22825081.221 10 0 60104 30600.00000 0 -10863095.837 -6844814.280 22076757.182 10 0 60104 31500.00000 0 -11199444.050 -9467077.363 20901250.407 10 0 60104 32400.00000 0 -11698506.003 -11891583.843 19320989.808 10 0 60104 33300.00000 0 -12322902.523 -14062624.918 17366259.842 10 0 60104 34200.00000 0 -13026614.883 -15933713.098 15074645.172 10 0 60104 35100.00000 0 -13757003.470 -17469302.400 12490331.480 10 0 60104 36000.00000 0 -14457127.986 -18646065.074 9663273.358 10 0 60104 36900.00000 0 -15068272.889 -19453670.007 6648243.250 10 0 60104 37800.00000 0 -15532572.128 -19895028.277 3503778.256 10 0 60104 38700.00000 0 -15795621.815 -19985993.484 291044.366 10 0 60104 39600.00000 0 -15808968.863 -19754527.631 -2927359.806 10 0 60104 40500.00000 0 -15532367.913 -19239366.306 -6088635.772 10 0 60104 41400.00000 0 -14935707.940 -18488238.848 -9131028.950 10 0 60104 42300.00000 0 -14000523.591 -17555718.815 -11995057.128 10 0 60104 43200.00000 0 -12721023.865 -16500796.635 -14624697.275 10 0 60104 44100.00000 0 -11104591.530 -15384278.767 -16968505.034 10 0 60104 45000.00000 0 -9171729.669 -14266125.598 -18980642.574 10 0 60104 45900.00000 0 -6955455.835 -13202843.085 -20621792.668 10 0 60104 46800.00000 0 -4500168.423 -12245040.740 -21859939.529 10 0 60104 47700.00000 0 -1860032.854 -11435261.115 -22671000.100 10 0 60104 48600.00000 0 903044.080 -10806173.798 -23039293.087 10 0 60104 49500.00000 0 3721765.745 -10379210.685 -22957836.800 10 0 60104 50400.00000 0 6526023.318 -10163699.791 -22428470.737 10 0 60104 51300.00000 0 9245590.556 -10156532.967 -21461799.782 10 0 60104 52200.00000 0 11812822.237 -10342379.652 -20076963.669 10 0 60104 53100.00000 0 14165243.198 -10694435.232 -18301238.008 10 0 60104 54000.00000 0 16247920.258 -11175669.729 -16169476.544 10 0 60104 54900.00000 0 18015519.183 -11740521.448 -13723407.393 10 0 60104 55800.00000 0 19433962.638 -12336961.580 -11010798.776 10 0 60104 56700.00000 0 20481622.502 -12908840.620 -8084512.030 10 0 60104 57600.00000 0 21149999.797 -13398416.105 -5001461.626 10 0 60104 58500.00000 0 21443867.159 -13748954.285 -1821503.360 10 0 60104 59400.00000 0 21380871.332 -13907295.936 1393727.166 10 0 60104 60300.00000 0 20990615.462 -13826278.758 4582003.179 10 0 60104 61200.00000 0 20313262.308 -13466915.476 7681699.817 10 0 60104 62100.00000 0 19397718.823 -12800237.414 10632969.466 10 0 60104 63000.00000 0 18299479.242 -11808727.615 13378877.965 10 0 60104 63900.00000 0 17078217.206 -10487284.741 15866481.401 10 0 60104 64800.00000 0 15795227.050 -8843678.317 18047824.721 10 0 60104 65700.00000 0 14510819.879 -6898476.568 19880845.037 10 0 60104 66600.00000 0 13281781.414 -4684449.454 21330164.297 10 0 60104 67500.00000 0 12158995.649 -2245470.434 22367757.956 10 0 60104 68400.00000 0 11185331.431 365039.435 22973488.318 10 0 60104 69300.00000 0 10393878.410 3086063.192 23135493.234 10 0 60104 70200.00000 0 9806604.765 5851257.714 22850423.060 10 0 60104 71100.00000 0 9433492.267 8591450.829 22123520.896 10 0 60104 72000.00000 0 9272185.138 11237265.540 20968543.486 10 0 60104 72900.00000 0 9308168.528 13721765.468 19407522.569 10 0 60104 73800.00000 0 9515470.921 15983013.957 17470368.968 10 0 60104 74700.00000 0 9857863.235 17966441.851 15194324.504 10 0 60104 75600.00000 0 10290506.654 19626925.842 12623269.571 10 0 60104 76500.00000 0 10761982.058 20930490.239 9806897.195 10 0 60104 77400.00000 0 11216617.251 21855559.671 6799767.381 10 0 60104 78300.00000 0 11597014.714 22393708.407 3660258.448 10 0 60104 79200.00000 0 11846673.076 22549872.600 449434.807 10 0 60104 80100.00000 0 11912590.392 22342014.339 -2770146.877 10 0 60104 81000.00000 0 11747737.054 21800249.773 -5935669.198 10 0 60104 81900.00000 0 11313290.856 20965476.810 -8985297.799 10 0 60104 82800.00000 0 10580536.263 19887559.805 -11859411.147 10 0 60104 83700.00000 0 9532344.008 18623148.264 -14501789.939 10 0 60104 84600.00000 0 8164165.045 17233222.875 -16860740.435 10 0 60104 85500.00000 0 6484493.937 15780474.314 -18890127.333 10 0 60105 0.00000 0 4514780.037 14326627.877 -20550293.777 10 0 60105 900.00000 0 2288787.677 12929828.354 -21808849.715 10 0 60105 1800.00000 0 -148565.660 11642199.509 -22641309.995 10 0 60105 2700.00000 0 -2742847.651 10507680.002 -23031572.263 10 0 60105 3600.00000 0 -5432153.907 9560229.737 -22972223.211 10 0 60105 4500.00000 0 -8149469.409 8822481.339 -22464668.899 10 0 60105 5400.00000 0 -10825248.348 8304892.741 -21519087.644 10 0 60105 6300.00000 0 -13390103.399 8005434.744 -20154207.964 10 0 60105 7200.00000 0 -15777491.257 7909824.272 -18396917.682 10 0 60105 8100.00000 0 -17926282.109 7992290.550 -16281713.742 10 0 60105 9000.00000 0 -19783106.279 8216838.805 -13850005.291 10 0 60105 9900.00000 0 -21304381.270 8538955.213 -11149285.432 10 0 60105 10800.00000 0 -22457936.499 8907678.472 -8232189.342 10 0 60105 11700.00000 0 -23224170.415 9267948.500 -5155458.349 10 0 60105 12600.00000 0 -23596694.573 9563131.675 -1978831.130 10 0 60105 13500.00000 0 -23582440.911 9737615.424 1236115.937 10 0 60105 14400.00000 0 -23201230.829 9739362.766 4427156.651 10 0 60105 15300.00000 0 -22484826.847 9522319.831 7532608.412 10 0 60105 16200.00000 0 -21475508.734 9048576.146 10492508.982 10 0 60105 17100.00000 0 -20224235.081 8290188.254 13249755.127 10 0 60105 18000.00000 0 -18788467.821 7230591.455 15751182.795 10 0 60105 18900.00000 0 -17229750.265 5865541.644 17948569.998 10 0 60105 19800.00000 0 -15611138.754 4203548.420 19799545.180 10 0 60105 20700.00000 0 -13994593.342 2265781.296 21268385.643 10 0 60105 21600.00000 0 -12438434.190 85452.040 22326692.602 10 0 60105 22500.00000 0 -10994967.367 -2293302.885 22953931.405 10 0 60105 23400.00000 0 -9708376.866 -4816995.782 23137827.530 10 0 60105 24300.00000 0 -8612968.874 -7424754.806 22874611.121 10 0 60105 25200.00000 0 -7731840.371 -10050606.452 22169104.997 10 0 60105 26100.00000 0 -7076027.190 -12625982.174 21034653.382 10 0 60105 27000.00000 0 -6644167.559 -15082348.276 19492891.009 10 0 60105 27900.00000 0 -6422696.307 -17353852.503 17573354.788 10 0 60105 28800.00000 0 -6386563.371 -19379879.096 15312942.957 10 0 60105 29700.00000 0 -6500448.482 -21107406.785 12755229.447 10 0 60105 30600.00000 0 -6720423.068 -22493071.285 9949644.127 10 0 60105 31500.00000 0 -6995991.180 -23504845.004 6950532.597 10 0 60105 32400.00000 0 -7272424.564 -24123261.844 3816112.102 10 0 60105 33300.00000 0 -7493293.600 -24342133.395 607342.876 10 0 60105 34200.00000 0 -7603086.520 -24168723.934 -2613263.228 10 0 60105 35100.00000 0 -7549804.477 -23623374.547 -5782872.990 10 0 60105 36000.00000 0 -7287420.177 -22738590.349 -8839575.594 10 0 60105 36900.00000 0 -6778092.842 -21557628.135 -11723613.662 10 0 60105 37800.00000 0 -5994042.343 -20132643.774 -14378575.185 10 0 60105 38700.00000 0 -4918999.656 -18522478.041 -16752520.604 10 0 60105 39600.00000 0 -3549169.179 -16790175.646 -18799020.574 10 0 60105 40500.00000 0 -1893659.605 -15000343.956 -20478082.040 10 0 60105 41400.00000 0 25636.748 -13216464.867 -21756942.888 10 0 60105 42300.00000 0 2174712.100 -11498275.177 -22610718.524 10 0 60105 43200.00000 0 4508631.038 -9899327.418 -23022887.332 10 0 60105 44100.00000 0 6973187.691 -8464834.905 -22985605.636 10 0 60105 45000.00000 0 9506961.730 -7229891.856 -22499846.767 10 0 60105 45900.00000 0 12043685.800 -6218142.805 -21575362.677 10 0 60105 46800.00000 0 14514824.012 -5440955.646 -20230470.381 10 0 60105 47700.00000 0 16852252.513 -4897130.765 -18491669.179 10 0 60105 48600.00000 0 18990929.435 -4573155.486 -16393098.011 10 0 60105 49500.00000 0 20871442.572 -4443989.815 -13975845.380 10 0 60105 50400.00000 0 22442328.913 -4474346.967 -11287127.131 10 0 60105 51300.00000 0 23662070.420 -4620411.492 -8379349.670 10 0 60105 52200.00000 0 24500684.615 -4831919.817 -5309078.156 10 0 60105 53100.00000 0 24940845.945 -5054513.315 -2135930.770 10 0 60105 54000.00000 0 24978493.840 -5232263.275 1078578.953 10 0 60105 54900.00000 0 24622904.930 -5310260.749 4272229.099 10 0 60105 55800.00000 0 23896229.104 -5237162.250 7383283.041 10 0 60105 56700.00000 0 22832511.102 -4967584.888 10351667.474 10 0 60105 57600.00000 0 21476240.189 -4464251.360 13120113.396 10 0 60105 58500.00000 0 19880489.365 -3699796.047 15635239.607 10 0 60105 59400.00000 0 18104721.795 -2658157.708 17848559.807 10 0 60105 60300.00000 0 16212355.142 -1335501.356 19717395.994 10 0 60105 61200.00000 0 14268183.729 259368.933 21205682.651 10 0 60105 62100.00000 0 12335763.830 2105123.897 22284648.162 10 0 60105 63000.00000 0 10474868.428 4168546.228 22933361.912 10 0 60105 63900.00000 0 8739114.977 6405666.481 23139137.569 10 0 60105 64800.00000 0 7173862.612 8763353.300 22897785.182 10 0 60105 65700.00000 0 5814464.652 11181295.174 22213706.968 10 0 60105 66600.00000 0 4684948.125 13594294.813 21099833.864 10 0 60105 67500.00000 0 3797175.145 15934784.205 19577402.422 10 0 60105 68400.00000 0 3150521.653 18135458.760 17675574.072 10 0 60105 69300.00000 0 2732088.191 20131923.112 15430901.573 10 0 60105 70200.00000 0 2517435.531 21865239.698 12886650.205 10 0 60105 71100.00000 0 2471816.183 23284274.053 10091984.245 10 0 60105 72000.00000 0 2551851.755 24347738.029 7101032.255 10 0 60105 72900.00000 0 2707586.869 25025843.788 3971847.608 10 0 60105 73800.00000 0 2884833.647 25301496.859 765283.464 10 0 60105 74700.00000 0 3027707.506 25170975.492 -2456196.077 10 0 60105 75600.00000 0 3081245.899 24644065.025 -5629744.879 10 0 60105 76500.00000 0 2993997.110 23743639.221 -8693378.455 10 0 60105 77400.00000 0 2720466.752 22504704.433 -11587206.181 10 0 60105 78300.00000 0 2223315.110 20972945.881 -14254625.701 10 0 60105 79200.00000 0 1475208.864 19202837.214 -16643453.726 10 0 60105 80100.00000 0 460245.559 17255393.753 -18706968.689 10 0 60105 81000.00000 0 -825112.298 15195665.480 -20404842.761 10 0 60105 81900.00000 0 -2371635.195 13090077.170 -21703943.367 10 0 60105 82800.00000 0 -4157475.050 11003729.576 -22578987.370 10 0 60105 83700.00000 0 -6148858.513 8997776.941 -23013034.685 10 0 60105 84600.00000 0 -8301295.840 7126992.324 -22997811.783 10 0 60105 85500.00000 0 -10561253.788 5437623.627 -22533859.450 10 0 60106 0.00000 0 -12868220.935 3965630.135 -21630503.189 10 0 60106 900.00000 0 -15157078.693 2735371.633 -20305647.788 10 0 60106 1800.00000 0 -17360674.280 1758804.984 -18585403.145 10 0 60106 2700.00000 0 -19412490.977 1035216.410 -16503548.912 10 0 60106 3600.00000 0 -21249300.299 551499.386 -14100851.395 10 0 60106 4500.00000 0 -22813686.345 282962.004 -11424247.416 10 0 60106 5400.00000 0 -24056337.238 194626.357 -8525912.702 10 0 60106 6300.00000 0 -24938009.147 242961.944 -5462234.250 10 0 60106 7200.00000 0 -25431082.647 377977.284 -2292707.674 10 0 60106 8100.00000 0 -25520648.689 545579.561 921218.460 10 0 60106 9000.00000 0 -25205081.303 690101.603 4117328.756 10 0 60106 9900.00000 0 -24496075.642 756889.313 7233834.860 10 0 60106 10800.00000 0 -23418152.043 694840.904 10210554.804 10 0 60106 11700.00000 0 -22007648.610 458792.008 12990056.300 10 0 60106 12600.00000 0 -20311245.426 11647.666 15518743.504 10 0 60106 13500.00000 0 -18384082.266 -673826.905 17747868.269 10 0 60106 14400.00000 0 -16287547.629 -1613630.686 19634448.508 10 0 60106 15300.00000 0 -14086829.826 -2811623.168 21142078.054 10 0 60106 16200.00000 0 -11848329.951 -4259130.297 22241614.377 10 0 60106 17100.00000 0 -9637041.813 -5935077.236 22911732.518 10 0 60106 18000.00000 0 -7514005.109 -7806643.909 23139335.611 10 0 60106 18900.00000 0 -5533935.059 -9830418.431 22919814.564 10 0 60106 19800.00000 0 -3743124.863 -11954003.348 22257151.590 10 0 60106 20700.00000 0 -2177706.609 -14118011.215 21163864.603 10 0 60106 21600.00000 0 -862342.196 -16258369.909 19660791.895 10 0 60106 22500.00000 0 190601.257 -18308844.865 17776719.008 10 0 60106 23400.00000 0 981356.348 -20203675.748 15547852.455 10 0 60106 24300.00000 0 1522526.660 -21880219.336 13017147.758 10 0 60106 25200.00000 0 1838332.278 -23281489.010 10233502.157 10 0 60106 26100.00000 0 1963359.510 -24358484.278 7250825.408 10 0 60106 27000.00000 0 1940865.932 -25072211.416 4127004.966 10 0 60106 27900.00000 0 1820711.212 -25395308.314 922784.611 10 0 60106 28800.00000 0 1657000.867 -25313202.484 -2299421.838 10 0 60106 29700.00000 0 1505543.194 -24824750.575 -5476758.069 10 0 60106 30600.00000 0 1421228.521 -23942329.654 -8547168.833 10 0 60106 31500.00000 0 1455444.099 -22691373.975 -11450633.324 10 0 60106 32400.00000 0 1653637.037 -21109375.102 -14130362.005 10 0 60106 33300.00000 0 2053131.755 -19244386.652 -16533931.043 10 0 60106 34200.00000 0 2681297.628 -17153096.713 -18614329.755 10 0 60106 35100.00000 0 3554147.344 -14898549.925 -20330898.470 10 0 60106 36000.00000 0 4675427.669 -12547616.478 -21650136.783 10 0 60106 36900.00000 0 6036242.789 -10168316.210 -22546365.263 10 0 60106 37800.00000 0 7615227.029 -7827111.972 -23002227.158 10 0 60106 38700.00000 0 9379259.854 -5586287.298 -23009020.398 10 0 60106 39600.00000 0 11284692.476 -3501519.312 -22566854.059 10 0 60106 40500.00000 0 13279033.409 -1619748.727 -21684627.356 10 0 60106 41400.00000 0 15303020.784 22564.575 -20379833.086 10 0 60106 42300.00000 0 17292992.890 1400728.936 -18678191.083 10 0 60106 43200.00000 0 19183456.175 2502599.850 -16613120.738 10 0 60106 44100.00000 0 20909742.039 3328820.980 -14225064.725 10 0 60106 45000.00000 0 22410640.552 3892520.754 -11560678.958 10 0 60106 45900.00000 0 23630900.873 4218481.122 -8671906.158 10 0 60106 46800.00000 0 24523494.422 4341817.115 -5614952.416 10 0 60106 47700.00000 0 25051547.363 4306226.009 -2449187.703 10 0 60106 48600.00000 0 25189863.386 4161882.479 764007.714 10 0 60106 49500.00000 0 24925975.240 3963070.244 3962428.405 10 0 60106 50400.00000 0 24260683.333 3765650.935 7084237.760 10 0 60106 51300.00000 0 23208061.025 3624476.932 10069148.523 10 0 60106 52200.00000 0 21794928.208 3590856.462 12859568.306 10 0 60106 53100.00000 0 20059816.327 3710176.424 15401689.563 10 0 60106 54000.00000 0 18051468.474 4019781.383 17646504.962 10 0 60106 54900.00000 0 15826936.678 4547196.291 19550730.671 10 0 60106 55800.00000 0 13449354.371 5308766.216 21077621.888 10 0 60106 56700.00000 0 10985474.763 6308769.390 22197666.839 10 0 60106 57600.00000 0 8503074.887 7539040.722 22889147.516 10 0 60106 58500.00000 0 6068330.352 8979122.399 23138557.422 10 0 60106 59400.00000 0 3743266.952 10596937.068 22940868.777 10 0 60106 60300.00000 0 1583392.331 12349958.044 22299643.783 10 0 60106 61200.00000 0 -364395.987 14186830.827 21226986.842 10 0 60106 62100.00000 0 -2063540.637 16049381.651 19743337.013 10 0 60106 63000.00000 0 -3489121.139 17874932.617 17877102.516 10 0 60106 63900.00000 0 -4628663.004 19598829.648 15664141.791 10 0 60106 64800.00000 0 -5482424.558 21157079.848 13147098.425 10 0 60106 65700.00000 0 -6063148.056 22488989.226 10374600.171 10 0 60106 66600.00000 0 -6395283.844 23539690.466 7400335.319 10 0 60106 67500.00000 0 -6513718.590 24262453.829 4282022.582 10 0 60106 68400.00000 0 -6462059.868 24620682.271 1080293.439 10 0 60106 69300.00000 0 -6290548.822 24589504.256 -2142491.555 10 0 60106 70200.00000 0 -6053689.242 24156894.167 -5323468.871 10 0 60106 71100.00000 0 -5807694.359 23324269.969 -8400515.394 10 0 60106 72000.00000 0 -5607861.285 22106540.057 -11313482.884 10 0 60106 72900.00000 0 -5505986.807 20531594.990 -14005397.158 10 0 60106 73800.00000 0 -5547936.992 18639263.958 -16423596.132 10 0 60106 74700.00000 0 -5771476.641 16479779.265 -18520782.029 10 0 60106 75600.00000 0 -6204453.464 14111813.653 -20255965.064 10 0 60106 76500.00000 0 -6863416.379 11600173.878 -21595278.454 10 0 60106 77400.00000 0 -7752728.241 9013248.888 -22512647.620 10 0 60106 78300.00000 0 -8864211.675 6420321.348 -22990299.983 10 0 60106 79200.00000 0 -10177343.270 3888856.739 -23019105.441 10 0 60106 80100.00000 0 -11659987.589 1481884.842 -22598741.482 10 0 60106 81000.00000 0 -13269639.017 -744416.261 -21737680.858 10 0 60106 81900.00000 0 -14955117.774 -2742832.864 -20453003.503 10 0 60106 82800.00000 0 -16658647.054 -4476837.703 -18770038.133 10 0 60106 83700.00000 0 -18318222.380 -5921851.445 -16721842.378 10 0 60106 84600.00000 0 -19870172.252 -7065993.628 -14348533.477 10 0 60106 85500.00000 0 -21251801.553 -7910295.007 -11696484.388 99